This is the latest recevied weather packets stored in our database for station/object KC1BRV. If no packets are shown the sender has not sent any weather packets the latest 10 day(s).
| Time | Temp. | Humidity | Pressure | Rain* | Wind** | Luminosity | Snow |
|---|---|---|---|---|---|---|---|
| 1777895022 | 11.67° C | 52% | 1013.2 hPa | 0 mm | - | 142 W/m² | - |
| 1777894719 | 11.67° C | 52% | 1013.3 hPa | 0 mm | - | 83 W/m² | - |
| 1777894416 | 11.11° C | 53% | 1013.2 hPa | 0 mm | - | 63 W/m² | - |
| 1777894114 | 10.56° C | 54% | 1013.3 hPa | 0 mm | - | 61 W/m² | - |
| 1777893810 | 10.56° C | 55% | 1013.2 hPa | 0 mm | - | 60 W/m² | - |
| 1777893507 | 10° C | 57% | 1012.9 hPa | 0 mm | - | 87 W/m² | - |
| 1777893203 | 8.89° C | 59% | 1013.1 hPa | 0 mm | - | 42 W/m² | - |
| 1777892900 | 8.89° C | 63% | 1013.1 hPa | 0 mm | - | 41 W/m² | - |
| 1777892597 | 7.78° C | 67% | 1013.2 hPa | 0 mm | - | 37 W/m² | - |
| 1777892292 | 7.22° C | 71% | 1013.2 hPa | 0 mm | - | 44 W/m² | - |
| 1777891988 | 6.67° C | 73% | 1013.1 hPa | 0 mm | - | 38 W/m² | - |
| 1777891687 | 5.56° C | 76% | 1013.2 hPa | 0 mm | - | 36 W/m² | - |
| 1777891382 | 5° C | 78% | 1013.1 hPa | 0 mm | - | 30 W/m² | - |
| 1777891077 | 5° C | 79% | 1013.3 hPa | 0 mm | - | 27 W/m² | - |
| 1777890772 | 4.44° C | 80% | 1013.3 hPa | 0 mm | - | 24 W/m² | - |
| 1777890469 | 3.89° C | 81% | 1013.1 hPa | 0 mm | - | 22 W/m² | - |
| 1777890164 | 3.89° C | 83% | 1013.2 hPa | 0 mm | - | 20 W/m² | - |
| 1777889861 | 3.33° C | 84% | 1013.1 hPa | 0 mm | - | 18 W/m² | - |
| 1777889559 | 3.33° C | 84% | 1013.1 hPa | 0 mm | - | 15 W/m² | - |
| 1777889256 | 3.33° C | 84% | 1013.2 hPa | 0 mm | - | 13 W/m² | - |
| 1777888954 | 2.78° C | 86% | 1013 hPa | 0 mm | - | 11 W/m² | - |
| 1777888651 | 2.78° C | 86% | 1013 hPa | 0 mm | - | 8 W/m² | - |
| 1777888347 | 2.78° C | 86% | 1012.8 hPa | 0 mm | - | 6 W/m² | - |
| 1777888044 | 2.78° C | 86% | 1012.8 hPa | 0 mm | - | 4 W/m² | - |
| 1777887741 | 2.78° C | 86% | 1012.8 hPa | 0 mm | - | 3 W/m² | - |
* Rain latest hour (hover to see other rain measurements)
** Current wind speed in m/s (hover to see current wind gust speed)